Hourly Data Report for July 13, 2021

CARIBOU POINT (AUT)
NOVA SCOTIA
Current Station Operator: ECCC - MSC

45°46'00.000" N
62°41'00.000" W
2.40 m
8200774
71415
WBK

Download Data

Hourly Data (July 2021)
Hourly Data Report for July 13, 2021
TIME
LST
Temp Definition
°C
Dew Point Definition
°C
Rel Hum Definition
%
Precip. Amount Definition
mm

Wind Dir Definition
10's deg

Wind Spd Definition
km/h
Visibility Definition
km
Stn Press Definition
kPa
Hmdx Definition


Wind Chill Definition


Weather Definition


00:00 13.9 12.5 91 0.0 21 6   102.60     LegendNANA
01:00 13.5 12.1 91 0.0 22 7   102.62     LegendNANA
02:00 12.6 10.8 89 0.0 23 11   102.64     LegendNANA
03:00 12.9 11.5 91 0.0 23 8   102.65     LegendNANA
04:00 12.9 11.2 90 0.0 22 9   102.65     LegendNANA
05:00 12.3 10.7 90 0.0 21 9   102.67     LegendNANA
06:00 12.6 10.2 85 0.0 21 7   102.74     LegendNANA
07:00 15.2 11.0 76 0.0 15 1   102.78     LegendNANA
08:00 16.2 12.6 79 0.0 14 5   102.84     LegendNANA
09:00 17.4 12.4 73 0.0 11 10   102.84     LegendNANA
10:00 18.1 13.1 72 0.0 10 9   102.84     LegendNANA
11:00 18.7 13.7 72 0.0 9 7   102.84     LegendNANA
12:00 19.0 13.6 71 0.0 9 13   102.79     LegendNANA
13:00 19.8 14.3 71 0.0 10 10   102.76     LegendNANA
14:00 19.7 13.7 68 0.0 9 15   102.71     LegendNANA
15:00 19.3 14.8 75 0.0 11 17   102.70     LegendNANA
16:00 19.1 14.3 74 0.0 10 16   102.68     LegendNANA
17:00 19.0 14.4 75 0.0 11 12   102.66     LegendNANA
18:00 18.7 13.9 74 0.0 10 10   102.64     LegendNANA
19:00 18.4 13.8 75 0.0 12 14   102.64     LegendNANA
20:00 19.1 13.0 68 0.0 18 16   102.66     LegendNANA
21:00 18.3 10.9 62 0.0 21 13   102.67     LegendNANA
22:00 17.3 10.2 63 0.0 21 12   102.67     LegendNANA
23:00 16.6 8.0 57 0.0 22 15   102.69     LegendNANA

Notes on Data Quality.

Legend

  • E = Estimated
  • M = Missing
  • NA = Not Available*
  • [empty] = Indicates an unobserved value
Date modified: